Lamoni, IA

6:04 AM CST on January 19, 2018 (GMT -0600)
Lamoni Municipal

Weather History for KLWD - November, 2011

Change the Weather History Date:

Thursday, November 24, 2011

  Actual Average Record
Temperature  
Mean Temperature 51 °F 35 °F  
Max Temperature 65 °F 44 °F 73 °F (2017)
Min Temperature 37 °F 26 °F 7 °F (2013)
Degree Days  
Heating Degree Days 14 30  
Month to date heating degree days 510 574  
Since 1 July heating degree days 986 1058  
Cooling Degree Days 0 0  
Month to date cooling degree days 0 0  
Year to date cooling degree days 1144 946  
Moisture  
Dew Point 39 °F    
Average Humidity 70    
Maximum Humidity 100    
Minimum Humidity 40    
Precipitation  
Precipitation 0.00 in 0.06 in 0.37 in (1993)
Month to date precipitation 3.64 1.87  
Year to date precipitation 33.46  
Sea Level Pressure  
Sea Level Pressure 30.06 in    
Wind  
Wind Speed 14 mph (South)    
Max Wind Speed 24 mph    
Max Gust Speed 31 mph    
Visibility 6 miles    
Events Fog    
T = Trace of Precipitation, MM = Missing Value Source: NWS Daily Summary

Daily Weather History Graph

Daily Weather History Graph

Search for Another Location

Airport or City:

Trip Planner

Search our weather history database for the weather conditions in past years. The results will help you decide how hot, cold, wet, or windy it might be!

Date:

Astronomy

Nov. 24, 2011 Rise Set
Actual Time 7:12 AM CST 4:51 PM CST
Civil Twilight 6:42 AM CST 5:21 PM CST
Nautical Twilight 6:08 AM CST 5:55 PM CST
Astronomical Twilight 5:36 AM CST 6:28 PM CST
Moon 6:31 AM CST (11/24) 4:23 PM CST (11/24)
Length of Visible Light 10h 39m
Length of Day
9h 39m
Waning Crescent, 0% of the Moon is Illuminated
Nov 24
Waning Crescent
Nov 25
New
Dec 2
First Quarter
Dec 10
Full
Dec 17
Last Quarter

Hourly Weather History & Observations

Time (CST) Temp. Windchill Dew Point Humidity Pressure Visibility Wind Dir Wind Speed Gust Speed Precip Events Conditions
12:03 AM 37.4 °F 30.3 °F 37.4 °F 100% 30.13 in 2.5 mi South 10.4 mph - N/A   Partly Cloudy
12:19 AM 37.4 °F 30.8 °F 37.4 °F 100% 30.13 in 2.0 mi South 9.2 mph - N/A   Mostly Cloudy
12:30 AM 37.4 °F 31.4 °F 37.4 °F 100% 30.13 in 1.5 mi South 8.1 mph - N/A   Overcast
12:53 AM 37.0 °F 30.4 °F 37.0 °F 100% 30.16 in 0.5 mi South 9.2 mph - N/A Fog Fog
1:53 AM 37.0 °F 30.4 °F 37.0 °F 100% 30.15 in 0.2 mi South 9.2 mph - N/A Fog Fog
2:53 AM 37.0 °F 30.4 °F 37.0 °F 100% 30.15 in 0.2 mi South 9.2 mph - N/A Fog Fog
3:53 AM 37.0 °F 29.8 °F 37.0 °F 100% 30.13 in 0.2 mi South 10.4 mph - N/A Fog Fog
5:53 AM 37.0 °F 30.4 °F 37.0 °F 100% 30.13 in 0.2 mi South 9.2 mph - N/A Fog Fog
6:53 AM 37.0 °F 29.8 °F 37.0 °F 100% 30.12 in 0.2 mi South 10.4 mph - N/A Fog Fog
7:53 AM 37.0 °F 28.5 °F 37.0 °F 100% 30.13 in 1.2 mi South 13.8 mph - N/A   Overcast
8:13 AM 37.4 °F 28.9 °F 37.4 °F 100% 30.10 in 2.0 mi South 13.8 mph - N/A   Scattered Clouds
8:28 AM 39.2 °F 30.8 °F 39.2 °F 100% 30.10 in 3.0 mi South 15.0 mph - N/A   Partly Cloudy
8:53 AM 41.0 °F 33.5 °F 39.9 °F 96% 30.12 in 4.0 mi South 13.8 mph - N/A   Clear
9:53 AM 46.0 °F 40.2 °F 43.0 °F 89% 30.11 in 6.0 mi South 12.7 mph - N/A   Clear
10:53 AM 52.0 °F - 44.1 °F 74% 30.10 in 10.0 mi South 15.0 mph - N/A   Clear
11:53 AM 57.9 °F - 45.0 °F 62% 30.06 in 10.0 mi South 17.3 mph - N/A   Clear
12:53 PM 62.1 °F - 45.0 °F 53% 30.02 in 10.0 mi South 18.4 mph 25.3 mph N/A   Clear
2:53 PM 64.0 °F - 42.1 °F 45% 29.99 in 10.0 mi South 17.3 mph 29.9 mph N/A   Clear
3:53 PM 64.0 °F - 39.9 °F 41% 29.98 in 10.0 mi South 16.1 mph 26.5 mph N/A   Clear
4:53 PM 59.0 °F - 37.9 °F 46% 29.98 in 10.0 mi South 12.7 mph - N/A   Clear
5:53 PM 57.0 °F - 39.9 °F 53% 29.97 in 10.0 mi South 15.0 mph 20.7 mph N/A   Clear
6:53 PM 55.0 °F - 39.9 °F 57% 29.97 in 10.0 mi South 13.8 mph - N/A   Clear
7:53 PM 54.0 °F - 37.9 °F 55% 29.96 in 10.0 mi South 16.1 mph 28.8 mph N/A   Clear
8:53 PM 52.0 °F - 37.0 °F 57% 29.96 in 10.0 mi South 17.3 mph 26.5 mph N/A   Clear
9:53 PM 50.0 °F - 37.0 °F 61% 29.96 in 10.0 mi South 13.8 mph - N/A   Clear
11:53 PM 48.0 °F - 37.0 °F 66% 29.93 in 10.0 mi South 13.8 mph - N/A   Clear